User: anonymous   Login
Location: Sobotiste
(48.7170°N, 17.4000°E)
Time: 22:27:18
(UTC+01:00)
Language:

POLYITAN 1 - Orbit

View from above orbital plane
View from above orbital plane
View from above satellite
View from above satellite

Ground track
Ground track

The orbit is defined by the following mean orbital elements,

1 40042U          26075.28104134 +.00000000 +00000-0 +68272-3 0 00004
2 40042  98.1041  92.9580 0009601 110.0191 250.2082 15.29865777    03
Epoch (UTC): 16 March 2026 06:44:41
Eccentricity: 0.0009601
inclination: 98.1041°
perigee height: 470 km
apogee height: 483 km
right ascension of ascending node: 92.9580°
argument of perigee: 110.0191°
revolutions per day: 15.29865777
mean anomaly at epoch: 250.2082°

The dashed part of the orbit path shows where the satellite is in the earth's shadow,  

DLR